This is the latest recevied weather packets stored in our database for station/object N6HGA-1. If no packets are shown the sender has not sent any weather packets the latest 10 day(s).
| Time | Temp. | Humidity | Pressure | Rain* | Wind** | Luminosity | Snow |
|---|---|---|---|---|---|---|---|
| 1777752427 | 26.67° C | 25% | - | 0 mm | - | - | - |
| 1777751825 | 27.22° C | 26% | - | 0 mm | - | - | - |
| 1777751524 | 26.67° C | 25% | - | 0 mm | - | - | - |
| 1777751224 | 26.67° C | 27% | - | 0 mm | - | - | - |
| 1777750924 | 26.67° C | 27% | - | 0 mm | - | - | - |
| 1777750623 | 26.67° C | 26% | - | 0 mm | - | - | - |
| 1777750323 | 26.67° C | 26% | - | 0 mm | - | - | - |
| 1777750023 | 26.67° C | 27% | - | 0 mm | - | - | - |
| 1777749723 | 26.67° C | 26% | - | 0 mm | - | - | - |
| 1777749423 | 26.67° C | 26% | - | 0 mm | - | - | - |
| 1777749119 | 26.67° C | 46% | - | 0 mm | - | - | - |
| 1777748819 | 26.11° C | 46% | - | 0 mm | - | - | - |
| 1777748518 | 26.11° C | 46% | - | 0 mm | - | - | - |
| 1777748218 | 25.56° C | 47% | - | 0 mm | - | - | - |
| 1777747916 | 25.56° C | 28% | - | 0 mm | - | - | - |
| 1777747616 | 25.56° C | 28% | - | 0 mm | - | - | - |
| 1777747316 | 25.56° C | 29% | - | 0 mm | - | - | - |
| 1777747011 | 25.56° C | 29% | - | 0 mm | - | - | - |
| 1777746703 | 25° C | 48% | - | 0 mm | - | - | - |
| 1777746401 | 25° C | 48% | - | 0 mm | - | - | - |
| 1777746096 | 25° C | 48% | - | 0 mm | - | - | - |
| 1777745791 | 24.44° C | 49% | - | 0 mm | - | - | - |
| 1777745487 | 24.44° C | 49% | - | 0 mm | - | - | - |
| 1777744887 | 24.44° C | 49% | - | 0 mm | - | - | - |
| 1777744586 | 23.89° C | 50% | - | 0 mm | - | - | - |
* Rain since midnight (hover to see other rain measurements)
** Current wind speed in m/s (hover to see current wind gust speed)